Home > Weather > Sfax > Past weeks

Flag for Tunisia Past Weather in Sfax, Tunisia — Yesterday and Last 2 Weeks

Now
79 °F

Passing clouds.


Feels Like: 80 °F
Forecast: 72 / 86 °F
Wind: 15 mph from Northeast

Location: Sfax El-Maou

Current Time: Aug 23, 2016 at 10:09:14 PM

Latest Report: Aug 23, 2016 at 9:00 PM


Visibility: N/A

Pressure: 30.01 "Hg

Humidity: 54%

Dew Point: 61 °F

Location of SfaxLocation

Past Weather in Sfax — Graph

°F

Sfax Temperature Yesterday

Maximum temperature yesterday: 93 °F (at 12:00 PM)
Minimum temperature yesterday: 79 °F (at 4:00 AM)
Average temperature yesterday: 84 °F

High & Low Weather Summary for the Past Weeks

 TemperatureHumidityPressure
High93 °F (Aug 22, 12:00 PM)89% (Aug 20, 4:00 AM)30.15 "Hg (Aug 20, 4:00 AM)
Low68 °F (Aug 14, 6:00 AM)26% (Aug 22, 11:00 AM)29.83 "Hg (Aug 17, 3:00 PM)
Average81 °F62%30.00 "Hg
* Reported Aug 8 9:00 PM — Aug 23 9:00 PM, Sfax, Weather by CustomWeather, © 2016

Note: Actual official high and low records may vary slightly from our data, if they occured in-between our weather recording intervals... More about our weather records

Advertising

Sfax Weather History for the Previous 24 Hours

Scroll right to see more
 ConditionsComfort  
Time TempWeatherWind HumidityBarometerVisibility
9:00 PM
Tue, Aug 23
79 °FPassing clouds.15 mph54%30.01 "HgN/A
8:00 PM81 °FPassing clouds.14 mph58%30.01 "HgN/A
7:00 PM84 °FClear.16 mph40%29.98 "Hg10 mi
6:00 PM88 °FSunny.18 mph38%29.95 "Hg10 mi
5:00 PM88 °FPassing clouds.14 mph38%29.95 "HgN/A
4:00 PM90 °FSunny.7 mph43%29.98 "Hg10 mi
3:00 PM86 °FPassing clouds.14 mph55%29.98 "HgN/A
2:00 PM86 °FSunny.13 mph52%30.01 "Hg10 mi
1:00 PM90 °FPassing clouds.13 mph31%30.01 "HgN/A
12:00 PM88 °FPassing clouds.9 mph35%30.04 "HgN/A
11:00 AM86 °FPassing clouds.14 mph43%30.04 "HgN/A
10:00 AM82 °FPassing clouds.16 mph48%30.07 "HgN/A
9:00 AM79 °FPassing clouds.14 mph54%30.07 "HgN/A
8:00 AM75 °FPassing clouds.13 mph57%30.07 "HgN/A
7:00 AM73 °FPassing clouds.10 mph57%30.04 "HgN/A
6:00 AM72 °FPassing clouds.8 mph65%30.04 "HgN/A
5:00 AM72 °FPassing clouds.6 mph65%30.04 "HgN/A
4:00 AM72 °FPassing clouds.5 mph65%30.04 "HgN/A
3:00 AM73 °FPassing clouds.7 mph61%30.04 "HgN/A
2:00 AM73 °FPassing clouds.5 mph69%30.07 "HgN/A
1:00 AM77 °FPassing clouds.6 mph61%30.07 "HgN/A
12:00 AM77 °FPassing clouds.8 mph61%30.07 "HgN/A
11:00 PM
Mon, Aug 22
79 °FPassing clouds.10 mph58%30.07 "HgN/A
10:00 PM79 °FPassing clouds.8 mph61%30.07 "HgN/A
Weather by CustomWeather, © 2016

See weather overviewHow to use our weather pages